Hourly Data Report for October 31, 2014

All times are specified in Local Standard Time (LST). Add 1 hour to adjust for Daylight Saving Time where and when it is observed.

SAINT JOHN A
NEW BRUNSWICK

45°18'58.000" N
65°53'24.000" W
108.80 m
8104901
71609
YSJ

Download Data

Hourly Data (October 2014)
Hourly Data Report for October 31, 2014
Temp Definition
°C
Dew Point Temp Definition
°C
Rel Hum Definition
%
Wind Dir Definition
10's deg

Wind Spd Definition
km/h
Visibility Definition
km
Stn Press Definition
kPa
Hmdx Definition


Wind Chill Definition


Weather Definition


TIME
00:00 Legend Double Dagger 5.4 4.5 94 36 9 24.1 100.08     LegendNANA
01:00 Legend Double Dagger 5.8 0.6 69 3 14 24.1 100.11     LegendNANA
02:00 Legend Double Dagger 5.8 0.2 67 3 9 24.1 100.17     Cloudy
03:00 Legend Double Dagger 4.9 1.4 78 4 5 24.1 100.18     LegendNANA
04:00 Legend Double Dagger 5.1 0.9 74 36 7 24.1 100.19     LegendNANA
05:00 Legend Double Dagger 3.2 1.6 89 11 3 24.1 100.26     Cloudy
06:00 Legend Double Dagger 3.6 1.6 87 8 7 24.1 100.29     LegendNANA
07:00 Legend Double Dagger 3.8 0.7 80 36 1 24.1 100.32     LegendNANA
08:00 Legend Double Dagger 4.6 -0.2 71 4 6 24.1 100.40     Mostly Cloudy
09:00 Legend Double Dagger 6.0 -0.3 64 4 11 24.1 100.45     LegendNANA
10:00 Legend Double Dagger 7.3 -0.2 59 3 14 24.1 100.47     LegendNANA
11:00 Legend Double Dagger 8.6 0.6 57 4 8 24.1 100.46     Mostly Cloudy
12:00 Legend Double Dagger 9.7 1.4 56 12 10 24.1 100.42     LegendNANA
13:00 Legend Double Dagger 9.4 1.1 56 13 11 24.1 100.39     LegendNANA
14:00 Legend Double Dagger 9.8 2.4 60 8 13 24.1 100.39     Mostly Cloudy
15:00 Legend Double Dagger 9.6 2.5 61 11 9 24.1 100.42     LegendNANA
16:00 Legend Double Dagger 8.8 2.0 62 9 10 24.1 100.44     LegendNANA
17:00 Legend Double Dagger 8.0 2.1 66 8 7 24.1 100.48     Cloudy
18:00 Legend Double Dagger 7.0 2.3 72 7 6 24.1 100.48     LegendNANA
19:00 Legend Double Dagger 7.3 2.8 73 1 13 24.1 100.51     LegendNANA
20:00 Legend Double Dagger 6.0 3.9 86 3 10 24.1 100.59     Rain Showers
21:00 Legend Double Dagger 5.7 3.2 84 3 13 24.1 100.56     LegendNANA
22:00 Legend Double Dagger 5.5 3.0 84 2 11 24.1 100.57     LegendNANA
23:00 Legend Double Dagger 6.2 2.5 77 6 13 24.1 100.59     Cloudy

Notes on Data Quality.

Legend

  • E = Estimated
  • M = Missing
  • NA = Not Available
  • ‡ = Partner data that is not subject to review by the National Climate Archives
Date modified: